Weather in Bor

Russia / Kirov Oblast     59°11′26″N   53°05′03″E
temp.,
°C
wind,
m/s
gust,
m/s
humid.,
%
clouds,
%
prec.,
mm/h
press.,
hPa
HPBL,
m
23 april, fri
fri2300:00+4s41091100 0.1 1024444
03:00+4s3993100 0.6 1024467
06:00+4s3793100 0.0 1025376
09:00+6ssw3587100 0.0 1026446
12:00+10ssw346562 0.1 10261197
15:00+9sw346577 0.2 1026716
18:00+8se2471100 0.1 1026107
21:00+7sse3883100 0.1 1026293
24 april, sat
sat2400:00+6se3788100 0.0 1025253
03:00+5se3791100 0.0 1024270
06:00+5ese3986100 0.0 1023408
09:00+7ese4768100 0.0 1022901
12:00+9ese5761100 0.0 10191349
15:00+9e4768100 0.0 10171097
18:00+6e4889100 0.1 10161006
21:00+5ese4894100 0.8 1014938
25 april, sun
sun2500:00+5e4896100 0.4 1012883
03:00+4ese41096100 1.1 1010785
06:00+4ese51196100 0.9 1009896
09:00+3ese51196100 1.0 1007792
12:00+3ese51196100 0.8 1005621
15:00+3ese51296100 1.9 1004662
18:00+3s3897100 2.1 1003622
21:00+4s5978100 2.1 1003962
26 april, mon
mon2600:00+1s51096100 0.2 10031079
03:00+1s41096100 1.1 1002740
06:00+1ssw41097100 0.9 1002611
09:00+1sw4996100 1.8 1004575
12:00+2sw51196100 0.6 1006602
15:00+2wsw51497100 1.7 1008764
18:00+2wsw51296100 1.4 10091060
21:00+2sw31188100 1.4 1010579
27 april, tue
tue2700:000sw311925 0.0 1010339
03:00−2ssw27964 0.0 1011155
06:00+2sw24845 0.0 1010198
09:00+6sw3463100 0.0 10101040
12:00+9ssw3449100 0.0 10081717
15:00+8se3456100 0.0 10061174
18:00+6sse388397 0.3 1005689
21:00+4s4890100 0.7 1003737